Preview of NWS' New Version of Forecast
This preview is not operational and should not be used for support decisions.

Regional Weather Roundup (RWR)

Issued by Sioux Falls, SD (FSD)

                            
438 
ASUS43 KFSD 212310
RWRFSD

WEATHER ROUNDUP FOR SE SOUTH DAKOTA/SW MINNESOTA/NW IOWA
NATIONAL WEATHER SERVICE SIOUX FALLS SD
600 PM CDT THU JUN 21 2018

NOTE: "FAIR" INDICATES FEW OR NO CLOUDS BELOW 12,000 FEET WITH NO
SIGNIFICANT WEATHER AND OR OBSTRUCTIONS TO VISIBILITY.


SDZ038>040-050-052>070-220000-
SOUTHEAST SOUTH DAKOTA
  
CITY           SKY/WX    TMP DP  RH WIND       PRES   REMARKS
CHAMBERLAIN    CLOUDY    77  61  56 NE5       29.96S                  
HURON          CLOUDY    78  59  51 E3        29.93S                  
MADISON        FAIR      72  61  68 NE12      29.94F                  
MITCHELL       CLOUDY    74  60  61 NE9       29.93S                  
SIOUX FALLS    CLOUDY    71  61  70 NE12      29.92S                  
WINNER         FAIR      76  61  59 NE8       29.98R                  
$$

MNZ071-072-080-081-089-090-097-098-220000-
SOUTHWEST MINNESOTA
  
CITY           SKY/WX    TMP DP  RH WIND       PRES   REMARKS
JACKSON        CLOUDY    66  55  68 NE15      29.91S                  
LUVERNE        MOSUNNY   68  57  68 E9        29.92S                  
MARSHALL       NOT AVBL                                               
MONTEVIDEO     CLOUDY    79  59  50 SE5       29.91F                  
PIPESTONE      CLOUDY    72  61  68 E7        29.93F                  
REDWOOD FALLS  CLOUDY    74  59  59 VRB3      29.90F                  
TRACY          CLOUDY    71  61  70 SE7       29.92S                  
WINDOM         MOSUNNY   68  64  88 NE12      29.91S                  
$$

IAZ001>003-012>014-020>022-031-032-NEZ013-014-SDZ071-220000-
NORTHWEST IOWA
  
CITY           SKY/WX    TMP DP  RH WIND       PRES   REMARKS
CHEROKEE       CLOUDY    63  63  98 N12       29.87R                  
DENISON        CLOUDY    70  64  83 N17G24    29.83R                  
ESTHERVILLE    CLOUDY    65  59  81 NE18      29.88R                  
ORANGE CITY    CLOUDY    66  63  88 NE9G20    29.89S                  
SHELDON        CLOUDY    66  63  88 NE14G21   29.89R                  
SIOUX CITY     CLOUDY    66  61  84 N14       29.87R                  
SPENCER        CLOUDY    65  58  78 NE18G30   29.88R                  
STORM LAKE     CLOUDY    63  59  88 NE14G23   29.86R                  
$$
 
ABBREVIATIONS USED IN REMARKS
   TC - TEMPERATURE IN CELSIUS
  WCI - WIND CHILL INDEX
   HX - HEAT INDEX
  VSB - VISIBILITY